sat.trackr.live / text

‹ back to catalog

ICEYE-X35

NORAD 58302 · 2023-174AY

PAYLOAD ACTIVE UNKNOWN

§ Identity

Operator
Country
FIN
Launch date
2023-11-11
Launch site
AFWTR
Launch vehicle
Mass (kg)
RCS (m²)

External: N2YO · Heavens-Above · Gunter

§ Orbital elements

Epoch: 2026-05-25T05:07:15.307968Z

Period
92.89 min
Inclination
97.3799°
Eccentricity
0.0007859
Mean motion
15.50157887 rev/d
Perigee alt
410.9 km
Apogee alt
421.6 km
Semi-major
6,794.4 km
B*
7.5716e-4
RAAN
229.1893°
Arg perigee
265.5088°
Mean anomaly
94.5266°
Rev number
14,178

§ Raw data

ICEYE-X351 58302U 23174AY  26145.21337162  .00042791  00000+0  75716-3 0  99992 58302  97.3799 229.1893 0007859 265.5088  94.5266 15.50157887141781

JSON: /api/v1/satellites/58302 · /tle

For live sub-satellite position, see the globe view (requires WebGL).

§ Visibility from observer

Set your observer location to see the next 7 days of passes ≥ 10°. The values pass through the URL so the page stays shareable.

No JS? Fill the form by hand. The geolocation button needs JavaScript.

§ Radio — SatNOGS DB

ModeDescriptionDownlinkUplink
BPSK S-band telemetry 2.264 GHz

1 transmitter · refreshed weekly from db.satnogs.org